Starlink 11361

operational
NORAD ID: 61585 Int'l Des: 2024-187 Owner: SPXS Country: US Constellation: starlink
LEOCIRCULAR

Über Starlink 11361

Beschreibung wird geladen...

Live-Position

3D-Globus wird geladen...

Nächste Überflüge

Höhenverlauf

Altitude vs Time

uPlot chart will show altitude changes over time

Zweizeiliger Elementsatz

1 61585U 24187M 25259.77809645 -.00001616 00000-0 -84924-5 0 9994
2 61585 53.1590 73.7108 0000660 36.1855 323.9207 15.69704009 53438
Epoch: 16. Sept. 2025 • Age: 33 hours

Aktueller Status

Höhe 377.8 km
Geschwindigkeit 7.68 km/s
Subsatellitenpunkt -51.24°S, 100.07°W
Startdatum 18. Okt. 2024
Alter 0.9 years
Typ internet

Technische Details

Klassifizierung Payload
Masse 960.00 kg
Trockenmasse 910.00 kg
Gesamtmasse 960.00 kg
Länge 0.30 m
Durchmesser 4.10 m
Spannweite 29.00 m
Form Box + pan
Hersteller SPXS
Bus-Typ Starlink V2MD
Phasenstatus In Orbit
Besitzer/Staat SPXS/US

Große Konstellationen

Loading constellations...